This is the latest recevied weather packets stored in our database for station/object SQ8NA-15. If no packets are shown the sender has not sent any weather packets the latest 10 day(s).
| Time | Temp. | Humidity | Pressure | Rain* | Wind** | Luminosity | Snow |
|---|---|---|---|---|---|---|---|
| 1787724016 | 15° C | 74% | 982.4 hPa | 0 mm | - | 73 W/m² | - |
| 1787723402 | 14.44° C | 75% | 982.3 hPa | 0 mm | - | 65 W/m² | - |
| 1787722177 | 14.44° C | 75% | 982.3 hPa | 0 mm | - | 49 W/m² | - |
| 1787721566 | 14.44° C | 77% | 982.2 hPa | 0 mm | - | 39 W/m² | - |
| 1787720965 | 14.44° C | 76% | 982.2 hPa | 0 mm | - | 29 W/m² | - |
| 1787719741 | 14.44° C | 77% | 982.2 hPa | 0 mm | - | 17 W/m² | - |
| 1787719141 | 13.33° C | 79% | 982.3 hPa | 0.25 mm | - | 16 W/m² | - |
| 1787718540 | 13.33° C | 86% | 982.2 hPa | 0.25 mm | - | 17 W/m² | - |
| 1787717316 | 13.89° C | 81% | 982.2 hPa | 0.25 mm | - | 4 W/m² | - |
| 1787716716 | 13.89° C | 79% | 982.2 hPa | 0.25 mm | - | 2 W/m² | - |
| 1787716115 | 13.89° C | 82% | 982.2 hPa | 0.25 mm | - | 2 W/m² | - |
| 1787714877 | 14.44° C | 75% | 982.2 hPa | 0 mm | - | 0 W/m² | - |
| 1787714266 | 14.44° C | 77% | 982.2 hPa | 0 mm | - | 0 W/m² | - |
| 1787713665 | 15° C | 74% | 982.1 hPa | 0 mm | - | 0 W/m² | - |
| 1787712391 | 14.44° C | 75% | 982 hPa | 0 mm | - | 0 W/m² | - |
| 1787711778 | 15° C | 71% | 982.2 hPa | 0 mm | - | 0 W/m² | - |
| 1787711165 | 15° C | 71% | 982.2 hPa | 0 mm | - | 0 W/m² | - |
| 1787709916 | 15° C | 71% | 982.1 hPa | 0 mm | - | 0 W/m² | - |
| 1787709303 | 15° C | 71% | 981.9 hPa | 0 mm | - | 0 W/m² | - |
| 1787708679 | 15° C | 72% | 981.8 hPa | 0 mm | - | 0 W/m² | - |
| 1787707428 | 15° C | 70% | 981.8 hPa | 0 mm | - | 0 W/m² | - |
| 1787706828 | 15° C | 71% | 981.8 hPa | 0 mm | - | 0 W/m² | - |
| 1787706178 | 15° C | 70% | 981.8 hPa | 0 mm | - | 0 W/m² | - |
| 1787704926 | 15.56° C | 68% | 981.8 hPa | 0 mm | - | 0 W/m² | - |
| 1787704316 | 15.56° C | 67% | 981.9 hPa | 0 mm | - | 0 W/m² | - |
* Rain latest hour (hover to see other rain measurements)
** Current wind speed in m/s (hover to see current wind gust speed)